Regional Weather Roundup
Issued by NWS Upton, NY

Current Version | Previous Version | Graphics & Text | Print | Product List | Glossary Off
Versions: 1 2 3 4 5 6 7 8 9 10 11 12 13 14 15 16 17 18 19 20 21 22 23 24 25 26 27 28 29 30 31 32 33 34 35 36 37 38 39 40 41 42 43 44 45 46 47 48 49 50

000
ASUS41 KOKX 290405
RWROKX

REGIONAL WEATHER ROUNDUP
NATIONAL WEATHER SERVICE NEW YORK NY
1100 PM EST SUN DEC 28 2014

NOTE: "FAIR" INDICATES FEW OR NO CLOUDS BELOW 12,000 FEET WITH NO
SIGNIFICANT WEATHER AND/OR OBSTRUCTIONS TO VISIBILITY.

NYZ071-072-176-178-NJZ106-104-290500-
NEW YORK CITY METRO AREA


CITY           SKY/WX    TMP DP  RH WIND       PRES   REMARKS
CENTRAL PARK   CLOUDY    44  29  55 VRB6      30.08R
LAGUARDIA APRT CLOUDY    43  30  60 NW14      30.05R
KENNEDY INTL   CLOUDY    45  31  58 NW17      30.06R
NEWARK/LIBERTY CLOUDY    44  31  60 NW13G21   30.07R
BRNX BOT. GARD   N/A    N/A N/A N/A W5        30.08R
TETERBORO      CLOUDY    44  33  65 NW8       30.06R
$$

NYZ177-179-078>081-290500-
LONG ISLAND NEW YORK

CITY           SKY/WX    TMP DP  RH WIND       PRES   REMARKS
FARMINGDALE    CLOUDY    45  31  58 NW14      30.05R
ISLIP          CLOUDY    44  31  60 NW13      30.02R
SHIRLEY        CLOUDY    44  33  65 N9        30.04R
WESTHAMPTON    CLOUDY    44  31  60 NW12      30.03R
MONTAUK POINT    N/A     45  33  63 NW12G20   30.02R
$$

NYZ052-065-067-290500-
HUDSON VALLEY

CITY           SKY/WX    TMP DP  RH WIND       PRES   REMARKS
WHITE PLAINS   CLOUDY    41  29  62 NW12      30.03R
NEWBURGH       PTCLDY    37  30  75 NW12      30.06R WCI  30
MONTGOMERY     CLOUDY    39  25  57 W5        30.05R
POUGHKEEPSIE   CLOUDY    40  29  64 NE6       30.05R
ALBANY         MOCLDY    35  25  66 NW5       30.06R WCI  31
$$

NJZ001-105-106-008-010-013-015-019>022-104-290500-
NEW JERSEY

CITY           SKY/WX    TMP DP  RH WIND       PRES   REMARKS
NEWARK/LIBERTY CLOUDY    44  31  60 NW13G21   30.07R
TETERBORO      CLOUDY    44  33  65 NW8       30.06R
CALDWELL       CLOUDY    41  30  65 VRB7      30.07R
MORRISTOWN     CLOUDY    43  30  61 N5        30.07R
SOMERVILLE     CLOUDY    43  31  62 N5        30.06R
SUSSEX         CLOUDY    38  28  67 N3        30.07R
ANDOVER        NOT AVBL
TRENTON        CLOUDY    45  30  55 N7        30.06R
MILLVILLE      LGT RAIN  48  43  82 NW7       30.07R
ATLANTIC CITY  LGT RAIN  47  45  93 W7        30.06R
WRIGHTSTOWN    LGT RAIN  45  39  81 N6        30.05R
TOMS RIVER     CLOUDY    46  39  76 N8        30.06R
BELMAR         CLOUDY    46  34  61 NW9       30.06R
$$

PAZ047>061-062-071-290500-
EASTERN PENNSYLVANIA

CITY           SKY/WX    TMP DP  RH WIND       PRES   REMARKS
PHILADELPHIA   LGT RAIN  49  38  65 NW8       30.08R
ALLENTOWN      CLOUDY    42  31  64 N9        30.09R
SCRANTON       MOCLDY    36  24  62 NW15      30.08R WCI  27
$$

CTZ002-004>006-009-010-012-RIZ004-006-007-MAZ004-011-015-290500-
SOUTHERN NEW ENGLAND
 IN CT

CITY           SKY/WX    TMP DP  RH WIND       PRES   REMARKS
BRADLEY INTL   CLOUDY    38  24  57 NW10      30.04R WCI  31
HARTFORD       CLOUDY    38  25  59 VRB6      30.05R WCI  33
DANBURY        CLOUDY    39  28  64 N9        30.04R WCI  33
WTRBRY/OXFORD  CLOUDY    36  25  64 N9        30.03R WCI  29
BRIDGEPORT     CLOUDY    42  32  67 NW8       30.04R
MERIDEN        CLOUDY    39  27  62 N7        30.04R WCI  34
NEW HAVEN      CLOUDY    44  29  55 NW12      30.04R
CHESTER        FAIR      37  30  75 NW9       30.02R WCI  31
GROTON         CLOUDY    40  30  67 NW16      30.00R WCI  31
WILLIMANTIC    MOCLDY    38  26  62 NW9       30.03R WCI  31

 IN RI

CITY           SKY/WX    TMP DP  RH WIND       PRES   REMARKS
PROVIDENCE     CLOUDY    40  25  55 NW10      29.99R WCI  33
BLOCK ISLAND   CLOUDY    43  30  61 NW9       29.99R
WESTERLY       CLOUDY    41  30  65 NW9G18    30.01R

 IN MA

CITY           SKY/WX    TMP DP  RH WIND       PRES   REMARKS
BOSTON         MOCLDY    41  28  60 W13       29.97R
WORCESTER      PTCLDY    33  25  72 W17G23    29.95R WCI  22
WESTFIELD      CLOUDY    38  23  55 NW20G26   30.03R WCI  28
PROVINCETOWN   CLOUDY    45  30  57 W17       29.95R
NANTUCKET      CLOUDY    45  33  63 NW7       29.94S
$$

ANZ330-335-338-340-345-350-353-355-290500-
COASTAL MARINE OBSERVATIONS


STATION/POSITION TIME  SKY/WX   TEMP    WIND        PRES    VSBY  WAVE
                                AIR SEA DIR/SP/G                  HT/PER
                 (UTC)          (F)     (DEG/KT/KT) (MB)    (MI)  (FT/S)
NY HARB ENTRANCE 0400            46 45  320/ 14/ 17 1017.8          3/ 7
4S FIRE IS       0400               47                N/A           3/ 7
20S FIRE ISLAND  0300            48 49              1016.7          4/ 7
23SW MTP         0400                                 N/A           4/ 8
HUDSON CANYON    0400            52 55  290/ 16/ 19 1016.1          4/ 7
EXECUTION ROCKS  0400            44 42  320/ 12/ 16   N/A
WESTERN LI SOUND 0400            44     310/ 12/ 14   N/A           0
CENTRAL LI SOUND 0300            44 44  310/ 16/ 19   N/A           2/ 2
EASTERN LI SOUND NOT AVBL
ROBBINS REEF     0400            43                 1016.8
$$


>>>>>>>>>>>>>>>>>>>>>>>>>>>> KEY <<<<<<<<<<<<<<<<<<<<<<<<<<<
>                                                          <
>     SKY/WX - SKY CONDITION/PRESENT WEATHER               <
>     TMP    - TEMPERATURE IN FAHRENHEIT                   <
>     DP     - DEWPOINT IN FAHRENHEIT                      <
>     RH     - RELATIVE HUMIDITY IN PERCENT                <
>     WIND   - DIRECTION AND SPEED IN MPH                  <
>     PRES   - MEAN SEA LEVEL PRESSURE IN INCHES OF HG     <
>     WCI    - WIND CHILL INDEX                            <
>     VSB    - VISIBILITY IN MILES                         <
>     HX     - HEAT INDEX                                  <
>     TC     - TEMPERATURE IN CELSIUS                      <
>     VRB    - VARIABLE WIND DIRECTION                     <
>                                                          <
>>>>>>>>>>>>>>>>>>>>>>>>>>>> KEY <<<<<<<<<<<<<<<<<<<<<<<<<<<




USA.gov is the U.S. government's official web portal to all federal, state and local government web resources and services.